Regional Weather Roundup
Issued by NWS Mt. Holly, NJ

Home | Current Version | Previous Version | Text Only | Print | Product List | Glossary On
Versions: 1 2 3 4 5 6 7 8 9 10 11 12 13 14 15 16 17 18 19 20 21 22 23 24 25 26 27 28
000
ASUS41 KPHI 242310
RWRPHI

REGIONAL WEATHER ROUNDUP
NATIONAL WEATHER SERVICE MOUNT HOLLY NJ
700 PM EDT FRI OCT 24 2014

NOTE:  "FAIR" INDICATES FEW OR NO CLOUDS BELOW 12,000 FEET WITH NO
SIGNIFICANT WEATHER AND/OR OBSTRUCTIONS TO VISIBILITY.

 * = STATION DOES NOT REPORT PRECIPITATION (E.G. RAIN, SNOW, ETC.)
        OR FOG.

NJZ015>026-250000-
SOUTHERN NEW JERSEY

CITY           SKY/WX    TMP DP  RH WIND       PRES   REMARKS
POMONA         MOCLDY    61  47  59 SW7       29.83R
RIO GRANDE*    PTCLDY    63  46  55 W9        29.86R
MILLVILLE      MOCLDY    59  45  59 W8        29.85R
WRIGHTSTOWN    PTCLDY    61  44  54 W6        29.80R
MOUNT HOLLY    MOCLDY    60  46  59 CALM      29.82R
TRENTON        PTCLDY    63  42  46 NW7       29.82R

$$
NJZ001>014-250000-
NORTHERN NEW JERSEY

CITY           SKY/WX    TMP DP  RH WIND       PRES   REMARKS
SUSSEX         CLEAR     63  40  42 NW3       29.81R
ANDOVER*         N/A     60  39  45 N6        29.83R
MORRISTOWN     CLEAR     63  41  45 N6G16     29.80F
NEWARK         MOCLDY    65  42  43 NW8       29.80R
TETERBORO      CLEAR     57  45  64 CALM      29.79R
CALDWELL       PTCLDY    63  39  41 NW8       29.80R
SOMERVILLE     PTCLDY    64  40  41 NW7       29.79R
ALLAIRE*       MOCLDY    57  46  67 E3        29.81R
TOMS RIVER*    PTCLDY    57  46  67 CALM      29.82R

$$
PAZ043-044-047-054-055-060>062-066>071-250000-
EASTERN PENNSYLVANIA

CITY           SKY/WX    TMP DP  RH WIND       PRES   REMARKS
PHILADELPHIA   MOCLDY    65  43  44 W12       29.84R
NORTH PHILA    MOCLDY    65  42  43 NW5       29.84R
BLUE BELL      MOCLDY    63  45  51 CALM      29.83R
DOYLESTOWN     MOCLDY    61  41  47 NW6       29.83R
QUAKERTOWN*    MOCLDY    61  43  51 N3        29.85R
POTTSTOWN      CLOUDY    62  40  44 VRB5      29.86R
LANCASTER      CLOUDY    59  38  45 W9        29.88R
COATESVILLE    CLOUDY    59  36  41 NW14      29.87R
READING        CLOUDY    62  34  35 W8        29.85R
ALLENTOWN      PTCLDY    61  42  49 NW5       29.84R
MOUNT POCONO   CLEAR     54  40  59 NW14G24   29.84R
HAZLETON       PTCLDY    59  34  38 NW9       29.90R
WILKES BARRE   CLEAR     59  39  47 N13       29.87R

$$
DEZALL-MDZ008-012-015-019-020-250000-
DELAWARE AND EASTERN MARYLAND

CITY           SKY/WX    TMP DP  RH WIND       PRES   REMARKS
WILMINGTON     MOCLDY    61  38  42 W7        29.86R
DOVER          MOCLDY    61  44  53 W5        29.85R
GEORGETOWN     PTCLDY    61  45  55 W5        29.89R
PATUXENT       MOCLDY    58  41  53 W9        29.91R
OCEAN CITY     CLEAR     58  46  64 W6        29.88R
WALLOPS ISLAND CLEAR     60  46  59 NW8       29.91R
CAMBRIDGE      PTCLDY    59  43  55 W5        29.90R
SALISBURY      CLEAR     58  46  64 SW6       29.89R

$$
PAZ001-021-NYZ056-072-MDZ011-DCZ001-250000-
OTHER NEARBY LOCATIONS

CITY           SKY/WX    TMP DP  RH WIND       PRES   REMARKS
HARRISBURG     CLOUDY    58  40  51 NW8       29.88R
STATE COLLEGE  CLEAR     55  36  47 NW5       29.94R
WILLIAMSPORT   CLOUDY    63  29  27 NW9       29.88R
BINGHAMTON     PTCLDY    51  39  63 NW8       29.89S
NEW YORK CITY  PTCLDY    57  45  64 CALM      29.82R
BALTIMORE      MOCLDY    60  35  39 NW3       29.90R
WASHINGTON DC  MOCLDY    66  38  35 W8        29.93R

$$



USA.gov is the U.S. government's official web portal to all federal, state and local government web resources and services.